Big Bear City, CA

9:52 PM PDT on April 30, 2017 (GMT -0700)
Big Bear City

Weather History for KL35 - May, 2014

Change the Weather History Date:

Monday, May 19, 2014

  Actual Average (KBUO) Record (KBUO)
Temperature  
Mean Temperature 50 °F -  
Max Temperature 60 °F 76 °F 89 °F (2000)
Min Temperature 39 °F 51 °F 44 °F (1998)
Degree Days  
Heating Degree Days 14    
Moisture  
Dew Point 21 °F    
Average Humidity 38    
Maximum Humidity 70    
Minimum Humidity 7    
Precipitation  
Precipitation 0.00 in - - ()
Sea Level Pressure  
Sea Level Pressure 30.04 in    
Wind  
Wind Speed 8 mph (WSW)    
Max Wind Speed 14 mph    
Max Gust Speed 22 mph    
Visibility 10 miles    
Events      
Averages and records for this station are not official NWS values.
T = Trace of Precipitation, MM = Missing Value Source: NWS Daily Summary

Daily Weather History Graph

Daily Weather History Graph

Search for Another Location

Airport or City:

Trip Planner

Search our weather history database for the weather conditions in past years. The results will help you decide how hot, cold, wet, or windy it might be!

Date:

Astronomy

May. 19, 2014 Rise Set
Actual Time 5:42 AM PDT 7:45 PM PDT
Civil Twilight 5:14 AM PDT 8:13 PM PDT
Nautical Twilight 4:40 AM PDT 8:47 PM PDT
Astronomical Twilight 4:03 AM PDT 9:24 PM PDT
Moon No Moon Rise 10:41 AM PDT (5/19)
Length of Visible Light 14h 59m
Length of Day
14h 02m
Waning Gibbous, 70% of the Moon is Illuminated
May 19
Waning Gibbous
May 21
Last Quarter
May 28
New
Jun 5
First Quarter
Jun 12
Full

Hourly Weather History & Observations

Time (PDT) Temp. Windchill Dew Point Humidity Pressure Visibility Wind Dir Wind Speed Gust Speed Precip Events Conditions
12:15 AM 44.6 °F 41.4 °F 26.6 °F 49% 30.04 in 10.0 mi WSW 5.8 mph - N/A   Clear
12:35 AM 44.6 °F 40.7 °F 26.6 °F 49% 30.04 in 10.0 mi WSW 6.9 mph - N/A   Clear
12:55 AM 44.6 °F 40.2 °F 28.4 °F 53% 30.03 in 10.0 mi WSW 8.1 mph - N/A   Clear
1:15 AM 46.4 °F 43.5 °F 28.4 °F 50% 30.03 in 10.0 mi WSW 5.8 mph - N/A   Clear
1:35 AM 46.4 °F 42.9 °F 30.2 °F 53% 30.02 in 10.0 mi WSW 6.9 mph - N/A   Clear
1:55 AM 46.4 °F 41.9 °F 30.2 °F 53% 30.02 in 10.0 mi WSW 9.2 mph - N/A   Clear
2:15 AM 46.4 °F 42.9 °F 30.2 °F 53% 30.02 in 10.0 mi WSW 6.9 mph - N/A   Clear
2:35 AM 46.4 °F 41.9 °F 32.0 °F 57% 30.02 in 10.0 mi West 9.2 mph - N/A   Clear
2:55 AM 44.6 °F 39.7 °F 32.0 °F 61% 30.02 in 10.0 mi West 9.2 mph - N/A   Clear
3:15 AM 44.6 °F 38.8 °F 30.2 °F 57% 30.01 in 10.0 mi West 11.5 mph - N/A   Clear
3:35 AM 44.6 °F 39.2 °F 30.2 °F 57% 30.01 in 10.0 mi West 10.4 mph - N/A   Clear
3:55 AM 44.6 °F 39.7 °F 30.2 °F 57% 30.01 in 10.0 mi West 9.2 mph - N/A   Clear
4:15 AM 44.6 °F 41.4 °F 30.2 °F 57% 30.01 in 10.0 mi WSW 5.8 mph - N/A   Clear
4:35 AM 44.6 °F 39.7 °F 28.4 °F 53% 30.01 in 10.0 mi West 9.2 mph - N/A   Clear
4:55 AM 44.6 °F 40.2 °F 26.6 °F 49% 30.01 in 10.0 mi West 8.1 mph - N/A   Clear
5:15 AM 44.6 °F 40.2 °F 26.6 °F 49% 30.01 in 10.0 mi West 8.1 mph - N/A   Clear
5:35 AM 44.6 °F 40.2 °F 23.0 °F 43% 30.02 in 10.0 mi West 8.1 mph - N/A   Clear
6:55 AM 48.2 °F - 19.4 °F 32% 30.04 in 10.0 mi West 5.8 mph - N/A   Clear
7:35 AM 51.8 °F - 14.0 °F 22% 30.04 in 10.0 mi WSW 9.2 mph - N/A   Clear
7:55 AM 53.6 °F - 14.0 °F 21% 30.04 in 10.0 mi WSW 8.1 mph - N/A   Clear
8:15 AM 53.6 °F - 8.6 °F 16% 30.04 in 10.0 mi West 13.8 mph 17.3 mph N/A   Clear
8:35 AM 55.4 °F - 12.2 °F 18% 30.04 in 10.0 mi WSW 9.2 mph - N/A   Clear
8:55 AM 57.2 °F - -4.0 °F 8% 30.04 in 10.0 mi SW 11.5 mph 17.3 mph N/A   Clear
9:15 AM 57.2 °F - -0.4 °F 10% 30.05 in 10.0 mi West 13.8 mph 19.6 mph N/A   Clear
9:35 AM 59.0 °F - 3.2 °F 11% 30.05 in 10.0 mi SW 8.1 mph 17.3 mph N/A   Clear
9:55 AM 59.0 °F - -4.0 °F 8% 30.05 in 10.0 mi SW 10.4 mph 16.1 mph N/A   Clear
10:15 AM 59.0 °F - -5.8 °F 7% 30.06 in 10.0 mi SW 11.5 mph 18.4 mph N/A   Clear
10:35 AM 59.0 °F - -5.8 °F 7% 30.06 in 10.0 mi SSW 11.5 mph 19.6 mph N/A   Clear
10:55 AM 60.8 °F - -4.0 °F 7% 30.06 in 10.0 mi SSW 9.2 mph 16.1 mph N/A   Clear
11:15 AM 60.8 °F - -0.4 °F 8% 30.07 in 10.0 mi SSW 8.1 mph - N/A   Clear
11:35 AM 60.8 °F - 6.8 °F 12% 30.07 in 10.0 mi WSW 11.5 mph 16.1 mph N/A   Clear
11:55 AM 60.8 °F - 1.4 °F 9% 30.07 in 10.0 mi WSW 11.5 mph 19.6 mph N/A   Clear
12:15 PM 60.8 °F - 8.6 °F 13% 30.08 in 10.0 mi WSW 9.2 mph 17.3 mph N/A   Clear
12:35 PM 60.8 °F - 8.6 °F 13% 30.07 in 10.0 mi West 13.8 mph - N/A   Clear
12:55 PM 60.8 °F - 8.6 °F 13% 30.07 in 10.0 mi WSW 12.7 mph 21.9 mph N/A   Clear
1:15 PM 60.8 °F - 8.6 °F 13% 30.07 in 10.0 mi WSW 8.1 mph - N/A   Clear
1:35 PM 60.8 °F - 8.6 °F 13% 30.07 in 10.0 mi WSW 11.5 mph 17.3 mph N/A   Clear
1:55 PM 60.8 °F - 12.2 °F 15% 30.07 in 10.0 mi WSW 10.4 mph 17.3 mph N/A   Clear
2:15 PM 59.0 °F - 14.0 °F 17% 30.07 in 10.0 mi WSW 11.5 mph 21.9 mph N/A   Clear
2:35 PM 59.0 °F - 21.2 °F 23% 30.06 in 10.0 mi SW 8.1 mph - N/A   Clear
2:55 PM 59.0 °F - 19.4 °F 22% 30.06 in 10.0 mi SSW 12.7 mph 18.4 mph N/A   Clear
3:15 PM 55.4 °F - 21.2 °F 26% 30.06 in 10.0 mi WSW 9.2 mph 16.1 mph N/A   Clear
3:55 PM 55.4 °F - 26.6 °F 33% 30.06 in 10.0 mi SW 6.9 mph - N/A   Clear
4:35 PM 53.6 °F - 28.4 °F 38% 30.05 in 10.0 mi WSW 6.9 mph - N/A   Clear
4:55 PM 53.6 °F - 30.2 °F 41% 30.05 in 10.0 mi WSW 6.9 mph - N/A   Clear
5:15 PM 53.6 °F - 28.4 °F 38% 30.04 in 10.0 mi SSW 4.6 mph - N/A   Clear
5:35 PM 53.6 °F - 26.6 °F 35% 30.04 in 10.0 mi South 5.8 mph - N/A   Clear
5:55 PM 53.6 °F - 26.6 °F 35% 30.03 in 10.0 mi SSW 5.8 mph 19.6 mph N/A   Clear
6:15 PM 51.8 °F - 28.4 °F 41% 30.03 in 10.0 mi SW 10.4 mph - N/A   Clear
6:35 PM 51.8 °F - 30.2 °F 44% 30.03 in 10.0 mi SSW 5.8 mph - N/A   Clear
6:55 PM 50.0 °F - 26.6 °F 40% 30.02 in 10.0 mi WSW 8.1 mph 18.4 mph N/A   Clear
7:15 PM 48.2 °F - 28.4 °F 46% 30.03 in 10.0 mi WSW 10.4 mph - N/A   Clear
7:35 PM 46.4 °F 41.9 °F 28.4 °F 50% 30.02 in 10.0 mi SW 9.2 mph 16.1 mph N/A   Clear
7:55 PM 44.6 °F 39.2 °F 30.2 °F 57% 30.03 in 10.0 mi SSW 10.4 mph - N/A   Clear
8:15 PM 44.6 °F 41.4 °F 33.8 °F 66% 30.03 in 10.0 mi SW 5.8 mph - N/A   Clear
8:35 PM 42.8 °F 41.1 °F 32.0 °F 66% 30.03 in 10.0 mi SSW 3.5 mph - N/A   Clear
8:55 PM 42.8 °F - 32.0 °F 66% 30.03 in 10.0 mi Calm Calm - N/A   Clear
9:15 PM 42.8 °F 39.3 °F 32.0 °F 66% 30.04 in 10.0 mi WSW 5.8 mph - N/A   Clear
9:35 PM 42.8 °F 41.1 °F 32.0 °F 66% 30.04 in 10.0 mi SW 3.5 mph - N/A   Clear
9:55 PM 41.0 °F 37.1 °F 32.0 °F 70% 30.04 in 10.0 mi SW 5.8 mph - N/A   Clear
10:15 PM 41.0 °F - 32.0 °F 70% 30.04 in 10.0 mi Calm Calm - N/A   Clear
10:35 PM 41.0 °F - 30.2 °F 65% 30.03 in 10.0 mi Calm Calm - N/A   Clear
10:55 PM 42.8 °F 41.1 °F 24.8 °F 49% 30.02 in 10.0 mi West 3.5 mph 17.3 mph N/A   Clear
11:15 PM 41.0 °F - 28.4 °F 61% 30.02 in 10.0 mi Calm Calm - N/A   Clear
11:35 PM 41.0 °F - 28.4 °F 61% 30.02 in 10.0 mi Calm Calm - N/A   Clear
11:55 PM 39.2 °F - 26.6 °F 61% 30.01 in 10.0 mi Calm Calm - N/A   Clear